[[{"header":{"parameterUnit":"m.s-1","parameterCategory":1,"la1":30.2991,"la2":30.254,"lo1":-89.0895,"lo2":-89.0444,"dy":0.0017,"dx":0.0017,"nx":28,"ny":28,"refTime":"2024-12-26T03:00:00:Z","depth":0,"parameterNumber":2,"parameterNumberName":"U-component_of_WINDS"},"data":[0,0,0,0,0,0,0,0,0,0,0,0,0,0,0,0,0,0,0,0,0,0,0,0,0,0,0,0,0,0,0,0,0,0,0,0,0,0,0,0,0,0,0,0,0,0,0,0,0,0,0,0,0,0,0,0,0,0,-6.6165,-6.6168,0,-6.6354,-6.6357,-6.6359,-6.6265,-6.6261,-6.6256,-6.6251,-6.6442,-6.6451,-6.6461,0,0,0,0,0,0,0,0,0,0,0,0,0,-6.5721,-6.573,-6.6165,-6.6168,-6.617,-6.6354,-6.6357,-6.6359,-6.6266,-6.626,-6.6254,-6.6249,-6.6438,-6.645,-6.6461,0,0,0,0,0,0,0,0,0,0,0,0,0,-6.5913,-6.5733,-6.6165,-6.6146,-6.6146,-6.6354,-6.6357,-6.636,-6.6268,-6.626,-6.6253,-6.6246,-6.6435,-6.6449,-6.6463,-6.6699,0,0,-6.6507,-6.6513,0,0,0,0,0,0,0,0,-6.5902,-6.5929,-6.6146,-6.6148,-6.6148,-6.6279,-6.627,-6.6474,-6.6269,-6.6221,-6.6251,-6.6242,-6.6393,-6.6411,-6.6462,-6.6708,-6.6716,-6.6508,-6.6517,-6.6523,-6.6528,0,0,0,0,0,0,0,-6.5889,-6.592,-6.624,-6.615,-6.6151,-6.6127,-6.6146,-6.6308,-6.6346,-6.6225,-6.6219,-6.6242,-6.6392,-6.6448,-6.6466,-6.6719,-6.6508,-6.6521,-6.653,-6.6535,-6.7169,-6.7177,0,0,0,0,0,0,-6.5877,-6.591,-6.6234,-6.6246,-6.6005,-6.6141,-6.6162,-6.6244,-6.6344,-6.6352,-6.6249,-6.6237,-6.6427,-6.6449,-6.6472,-6.6756,-6.6523,-6.6537,-6.6545,-6.7161,-6.7171,-6.718,0,0,0,0,0,0,-6.5868,-6.5907,-6.6226,-6.6076,-6.6115,-6.6157,-6.6249,-6.6252,-6.6308,-6.6362,-6.6368,-6.6299,-6.6422,-6.6452,-6.6644,-6.6761,-6.6543,-6.6557,-6.7151,-6.7164,-6.7175,-6.7325,0,0,0,0,0,0,-6.5855,-6.5904,-6.5994,-6.6079,-6.6124,-6.6396,-6.6257,-6.6261,-6.6334,-6.6321,-6.6411,-6.6419,-6.6419,-6.6623,-6.6658,-6.6777,-6.6568,-6.7141,-6.7157,-6.7171,-6.731,-6.7341,-6.7367,0,0,0,0,0,-6.584,-6.6028,-6.6,-6.6039,-6.6238,-6.6403,-6.6428,-6.6425,-6.6343,-6.6435,-6.6469,-6.6416,-6.6743,-6.6643,-6.6682,-6.6807,-6.7133,-6.7152,-6.717,-6.7297,-6.7335,-6.7367,0,0,0,0,0,0,-6.5955,-6.6039,-6.6008,-6.623,-6.631,-6.6387,-6.6502,-6.6465,-6.657,-6.6554,-6.6544,-6.6566,-6.6765,-6.6805,-6.6693,-6.7041,-6.6925,-6.6952,-6.7008,-6.7045,-6.7073,-6.7059,-6.658,0,0,0,0,0,-6.6006,-6.6134,-6.62,-6.6389,-6.6431,-6.646,-6.6532,-6.6523,-6.6605,-6.6638,-6.6687,-6.6768,-6.6889,-6.6969,-6.7083,-6.7315,-6.7333,-6.742,-6.7449,-6.7472,-6.7496,-6.7622,-6.7661,-6.724,-6.724,-6.7239,0,0,-6.6113,-6.6175,-6.6256,-6.6414,-6.6475,-6.6607,-6.6489,-6.6633,-6.6731,-6.666,-6.6845,-6.6884,-6.6973,-6.7187,-6.7283,-6.7226,-6.7616,-6.7496,-6.7514,-6.7525,-6.7645,-6.7684,-6.772,-6.7252,-6.725,-6.7248,0,0,-6.6375,-6.6435,-6.66,-6.6664,-6.6759,-6.6777,-6.6817,-6.69,-6.6924,-6.7109,-6.7059,-6.7174,-6.7382,-6.7449,-6.751,-6.78,-6.7755,-6.7837,-6.7988,-6.811,-6.8144,-6.8173,-6.8276,-6.8314,-6.786,-6.7861,-6.7861,0,-6.6496,-6.6694,-6.6689,-6.6838,-6.6909,-6.6852,-6.7019,-6.7081,-6.7208,-6.7258,-6.7193,-6.7454,-6.7511,-6.7739,-6.781,-6.7861,-6.7906,-6.7827,-6.814,-6.8169,-6.8196,-6.8295,-6.8334,-6.787,-6.7869,-6.7868,-6.7867,0,-6.6838,-6.6976,-6.7097,-6.7223,-6.7308,-6.7465,-6.7483,-6.7569,-6.7553,-6.7578,-6.7768,-6.7834,-6.7961,-6.8015,-6.8,-6.8242,-6.8203,-6.814,-6.8023,-6.8246,-6.8338,-6.8376,-6.7884,-6.788,-6.7877,-6.7875,0,0,-6.7176,-6.7299,-6.7344,-6.74,-6.7502,-6.7608,-6.7763,-6.7888,-6.7962,-6.8052,-6.8181,-6.836,-6.8302,-6.8371,-6.8364,-6.8472,-6.8697,-6.8394,-6.8396,-6.8448,-6.8968,-6.9015,-6.9059,-6.8668,-6.8675,-6.8681,-6.896,0,-6.7446,-6.7718,-6.7718,-6.7969,-6.8096,-6.8045,-6.818,-6.8256,-6.8284,-6.8396,-6.8425,-6.8552,-6.8466,-6.8508,-6.8612,-6.8648,-6.8801,-6.8628,-6.8788,-6.8793,-6.8766,-6.9107,-6.9157,-6.9418,-6.8996,-6.9002,-6.9007,0,-6.7796,-6.7899,-6.8163,-6.8247,-6.8301,-6.8422,-6.8538,-6.8645,-6.8731,-6.8743,-6.8823,-6.8799,-6.8955,-6.8834,-6.905,-6.8932,-6.8997,-6.9025,-6.9035,-6.9049,-6.8913,-6.9131,-6.95,-6.9539,-6.9064,-6.9059,-6.9055,0,-6.8017,-6.8222,-6.8406,-6.8456,-6.8559,-6.8645,-6.8692,-6.8771,-6.8847,-6.8947,-6.8996,-6.9114,-6.9178,-6.9269,-6.9278,-6.9189,-6.9495,-6.9375,-6.9509,-6.951,-6.9576,-6.9571,-6.9961,-6.9619,-6.9618,-6.9617,-6.9617,0,-6.8317,-6.848,-6.8507,-6.862,-6.8802,-6.8801,-6.898,-6.9019,-6.909,-6.921,-6.9172,-6.9285,-6.9289,-6.9405,-6.9412,-6.959,-6.9619,-6.9633,-6.9633,-6.9637,-6.9635,-6.9679,-6.9661,-6.9628,-6.9626,-6.9624,-6.9622,0,-6.8594,-6.8618,-6.8816,-6.8898,-6.8922,-6.9052,-6.9122,-6.923,-6.9255,-6.9407,-6.9442,-6.9481,-6.9615,-6.9633,-6.9789,-6.9794,-7.0008,-6.9988,-6.9979,-6.9976,-7.011,-7.0097,-7.0541,-7.0599,-7.022,-7.0223,-7.0226,0,-6.8783,-6.8908,-6.9004,-6.9083,-6.9134,-6.9261,-6.9339,-6.9343,-6.9425,-6.9534,-6.9629,-6.9759,-6.9864,-7.0081,-7.0122,-7.0241,-7.0225,-7.0372,-7.0242,-7.0242,-7.0227,-7.0219,-7.0231,-7.0397,-7.0401,-7.0404,-7.0407,0,-6.9117,-6.9124,-6.9238,-6.9358,-6.9453,-6.9547,-6.9635,-6.9701,-6.9717,-6.9811,-6.9949,-7.0031,-7.0191,-7.0321,-7.044,-7.0486,-7.045,-7.0448,-7.0486,-7.049,-7.0479,-7.0487,-7.0047,-7.0438,-7.0435,-7.0432,-7.0431,-7.0429,-6.9356,-6.9465,-6.955,-6.9679,-6.9747,-6.9831,-6.9937,-6.9976,-7.0091,-7.0224,-7.0219,-7.0371,-7.0454,-7.061,-7.0665,-7.0783,-7.0734,-7.0788,-7.0802,-7.0815,-7.0829,-7.0462,-7.0804,-7.0803,-7.0803,-7.0802,-7.0801,0,-6.9687,-6.9741,-6.986,-6.9986,-7.0088,-7.0047,-7.0143,-7.023,-7.0365,-7.0446,-7.0551,-7.071,-7.0836,-7.0888,-7.1012,-7.1097,-7.1083,-7.1129,-7.1122,-7.1134,-7.0865,-7.082,-7.1138,-7.1138,-7.1138,-7.1138,-7.1138,-7.1138,-6.9872,-7.0054,-7.0072,-7.0287,-7.0338,-7.0488,-7.0547,-7.0624,-7.0689,-7.0869,-7.0975,-7.1009,-7.1079,-7.1208,-7.1322,-7.1334,-7.1381,-7.1434,-7.1439,-7.1187,-7.1153,-7.112,-7.1078,-7.1445,-7.1445,-7.1698,-7.17,-7.1702]},{"header":{"parameterUnit":"m.s-1","parameterCategory":1,"la1":30.2991,"la2":30.254,"lo1":-89.0895,"lo2":-89.0444,"dy":0.0017,"dx":0.0017,"nx":28,"ny":28,"refTime":"2024-12-26T03:00:00:Z","depth":0,"parameterNumber":3,"parameterNumberName":"V-component_of_WINDS"},"data":[0,0,0,0,0,0,0,0,0,0,0,0,0,0,0,0,0,0,0,0,0,0,0,0,0,0,0,0,0,0,0,0,0,0,0,0,0,0,0,0,0,0,0,0,0,0,0,0,0,0,0,0,0,0,0,0,0,0,-1.5304,-1.5305,0,-1.5341,-1.5342,-1.5342,-1.5342,-1.5341,-1.5341,-1.534,-1.5381,-1.5382,-1.5384,0,0,0,0,0,0,0,0,0,0,0,0,0,-1.5234,-1.5235,-1.5304,-1.5305,-1.5305,-1.5341,-1.5342,-1.5342,-1.5342,-1.5341,-1.5341,-1.534,-1.538,-1.5382,-1.5384,0,0,0,0,0,0,0,0,0,0,0,0,0,-1.5267,-1.5236,-1.5304,-1.5309,-1.531,-1.5341,-1.5342,-1.5342,-1.5342,-1.5341,-1.534,-1.534,-1.538,-1.5382,-1.5384,-1.5414,0,0,-1.5391,-1.5392,0,0,0,0,0,0,0,0,-1.5265,-1.527,-1.5308,-1.5309,-1.531,-1.5336,-1.5332,-1.5366,-1.5342,-1.533,-1.534,-1.5339,-1.5367,-1.537,-1.5379,-1.5416,-1.5417,-1.5392,-1.5393,-1.5394,-1.5395,0,0,0,0,0,0,0,-1.5263,-1.5268,-1.5319,-1.5308,-1.531,-1.531,-1.5314,-1.5339,-1.5352,-1.5331,-1.5331,-1.5335,-1.5367,-1.5377,-1.538,-1.5418,-1.5392,-1.5394,-1.5395,-1.5396,-1.548,-1.5481,0,0,0,0,0,0,-1.5259,-1.5266,-1.5318,-1.532,-1.5285,-1.5312,-1.5316,-1.5328,-1.5352,-1.5355,-1.5336,-1.5335,-1.5373,-1.5377,-1.5381,-1.5417,-1.5394,-1.5396,-1.5397,-1.5479,-1.548,-1.5481,0,0,0,0,0,0,-1.5258,-1.5264,-1.5316,-1.5293,-1.53,-1.5314,-1.5328,-1.533,-1.5339,-1.5356,-1.5358,-1.5343,-1.5373,-1.5378,-1.5405,-1.5418,-1.5397,-1.5399,-1.5478,-1.548,-1.5481,-1.5488,0,0,0,0,0,0,-1.5256,-1.5263,-1.5275,-1.5293,-1.5301,-1.5339,-1.5328,-1.5331,-1.5343,-1.5342,-1.5363,-1.5366,-1.5372,-1.5402,-1.5408,-1.5421,-1.5401,-1.5477,-1.5479,-1.548,-1.5487,-1.5489,-1.5491,0,0,0,0,0,-1.5253,-1.5276,-1.5275,-1.5281,-1.5315,-1.534,-1.5344,-1.5351,-1.5344,-1.5355,-1.5366,-1.5365,-1.5416,-1.5405,-1.5411,-1.5425,-1.5476,-1.5478,-1.548,-1.5485,-1.5489,-1.5491,0,0,0,0,0,0,-1.5259,-1.5278,-1.5278,-1.5307,-1.5322,-1.534,-1.5354,-1.5354,-1.5372,-1.5371,-1.5379,-1.5384,-1.5411,-1.5421,-1.5408,-1.5455,-1.5445,-1.5449,-1.5447,-1.545,-1.5453,-1.5449,-1.5403,0,0,0,0,0,-1.5263,-1.5281,-1.5298,-1.5322,-1.5329,-1.534,-1.5352,-1.5355,-1.5371,-1.5378,-1.539,-1.5406,-1.5426,-1.5439,-1.5458,-1.5488,-1.5492,-1.5501,-1.5503,-1.5505,-1.5508,-1.5524,-1.5528,-1.5487,-1.5487,-1.5487,0,0,-1.5273,-1.5286,-1.5297,-1.5323,-1.5335,-1.5354,-1.5346,-1.5366,-1.538,-1.5381,-1.5407,-1.5417,-1.5436,-1.5464,-1.5478,-1.5474,-1.552,-1.5508,-1.5509,-1.5511,-1.5527,-1.553,-1.5534,-1.5489,-1.5489,-1.5488,0,0,-1.53,-1.5312,-1.5333,-1.5344,-1.5362,-1.5369,-1.5374,-1.5392,-1.5398,-1.5425,-1.5425,-1.5443,-1.5476,-1.5489,-1.55,-1.5531,-1.5531,-1.5537,-1.555,-1.5566,-1.5569,-1.5572,-1.5582,-1.5586,-1.554,-1.554,-1.554,0,-1.531,-1.5338,-1.5344,-1.5364,-1.5375,-1.5375,-1.5397,-1.5408,-1.5431,-1.5439,-1.5434,-1.5476,-1.5488,-1.552,-1.5527,-1.5536,-1.5542,-1.5535,-1.5568,-1.5571,-1.5574,-1.5584,-1.5588,-1.554,-1.554,-1.554,-1.554,0,-1.5349,-1.5368,-1.5383,-1.5404,-1.5417,-1.5438,-1.5447,-1.5459,-1.5462,-1.547,-1.5496,-1.5511,-1.5533,-1.5541,-1.5544,-1.5573,-1.5569,-1.5566,-1.5557,-1.5578,-1.5587,-1.5591,-1.5541,-1.5541,-1.5541,-1.5541,0,0,-1.5381,-1.5404,-1.5409,-1.5418,-1.5438,-1.5453,-1.5474,-1.5494,-1.5504,-1.552,-1.5538,-1.5566,-1.5562,-1.5575,-1.5579,-1.5593,-1.5616,-1.5588,-1.5589,-1.5592,-1.5648,-1.565,-1.5654,-1.5616,-1.5617,-1.5617,-1.5646,0,-1.5409,-1.5445,-1.545,-1.5482,-1.5499,-1.55,-1.5518,-1.5531,-1.5539,-1.5556,-1.5565,-1.5584,-1.5579,-1.5586,-1.56,-1.561,-1.5627,-1.5608,-1.5633,-1.5633,-1.5627,-1.5659,-1.5662,-1.5688,-1.565,-1.5651,-1.5651,0,-1.5447,-1.5463,-1.5496,-1.5512,-1.5519,-1.5535,-1.5554,-1.5569,-1.5585,-1.559,-1.5603,-1.5606,-1.5628,-1.5617,-1.5647,-1.5634,-1.5645,-1.5651,-1.5653,-1.5655,-1.5643,-1.5662,-1.5696,-1.57,-1.5657,-1.5657,-1.5656,0,-1.5466,-1.5496,-1.5519,-1.5527,-1.5546,-1.5557,-1.5566,-1.5581,-1.5593,-1.5609,-1.5616,-1.5636,-1.5646,-1.5661,-1.5669,-1.5661,-1.5699,-1.5689,-1.5703,-1.5703,-1.5711,-1.571,-1.5747,-1.5718,-1.5718,-1.5718,-1.5718,0,-1.5497,-1.5517,-1.5528,-1.5542,-1.5564,-1.557,-1.5593,-1.5601,-1.5614,-1.563,-1.5633,-1.5648,-1.5658,-1.5675,-1.5681,-1.5705,-1.571,-1.5714,-1.5716,-1.5714,-1.5713,-1.572,-1.5719,-1.5719,-1.5719,-1.5719,-1.5719,0,-1.5522,-1.553,-1.5555,-1.5571,-1.5575,-1.5591,-1.5605,-1.5619,-1.5626,-1.5647,-1.5652,-1.5664,-1.5684,-1.5693,-1.5719,-1.5723,-1.5749,-1.575,-1.5744,-1.5744,-1.5757,-1.5756,-1.58,-1.5806,-1.5774,-1.5774,-1.5774,0,-1.5541,-1.5556,-1.5573,-1.5584,-1.5592,-1.561,-1.5621,-1.5628,-1.5639,-1.5658,-1.567,-1.5689,-1.5705,-1.5737,-1.5749,-1.5768,-1.5769,-1.5783,-1.5772,-1.5769,-1.5768,-1.5767,-1.5768,-1.5785,-1.5785,-1.5785,-1.5785,0,-1.5574,-1.5577,-1.5592,-1.5609,-1.5622,-1.5636,-1.565,-1.5659,-1.5668,-1.5681,-1.57,-1.5713,-1.5738,-1.5757,-1.5777,-1.5787,-1.5788,-1.5789,-1.5793,-1.5791,-1.5786,-1.5788,-1.5749,-1.5788,-1.5788,-1.5787,-1.5787,-1.5787,-1.5596,-1.5609,-1.5623,-1.564,-1.5651,-1.5663,-1.5677,-1.5685,-1.5702,-1.5721,-1.5725,-1.5746,-1.5761,-1.5787,-1.5798,-1.5814,-1.5811,-1.5817,-1.5819,-1.582,-1.582,-1.5784,-1.5818,-1.5818,-1.5818,-1.5818,-1.5818,0,-1.5628,-1.5637,-1.5652,-1.5671,-1.5684,-1.5683,-1.5698,-1.571,-1.5727,-1.5741,-1.5756,-1.5779,-1.5798,-1.581,-1.5829,-1.584,-1.5841,-1.5845,-1.5844,-1.5846,-1.5823,-1.5817,-1.5844,-1.5844,-1.5844,-1.5844,-1.5844,-1.5844,-1.5646,-1.5668,-1.5672,-1.5699,-1.5708,-1.5728,-1.5736,-1.5748,-1.5758,-1.5783,-1.5798,-1.5806,-1.5819,-1.5839,-1.5856,-1.5859,-1.5866,-1.587,-1.5873,-1.5851,-1.5848,-1.5845,-1.584,-1.5872,-1.5872,-1.5896,-1.5896,-1.5896]}]]